Cosmos 1461 - Orbit

View from above orbital plane
View from above orbital plane
View from above satellite
View from above satellite

Ground track
Ground track

The orbit data is extracted from the following two-line orbital elements,

1 14064U 83044A   13141.54671100  .00002343  00000-0  24318-3 0  1803
2 14064 065.0043 185.5623 0137398 272.2810 248.3997 14.85751195501620
Epoch (UTC): 21 May 2013 13:07:15
Eccentricity: 0.0137398
inclination: 65.0043°
perigee height: 515 km
apogee height: 707 km
right ascension of ascending node: 185.5623°
argument of perigee: 272.2810°
revolutions per day: 14.85751195
mean anomaly at epoch: 248.3997°
orbit number at epoch: 50162

The dashed part of the orbit path shows where the satellite is in the earth's shadow,  

Developed and maintained by Chris Peat, Heavens-Above GmbH. Please read the updated FAQ before sending e-mail. Imprint. DLR